星链-30052 (STARLINK-30052 )

导读

STARLINK-30052是美国SpaceX公司星链(Starlink)低轨通信星座的一员,于2023年8月11日发射入轨。作为星链量产卫星,它采用平板设计搭载太阳电池阵,配备氪工质霍尔推进器,支持Ku/Ka波段通信与光学星间链路,具备自主避撞能力,设计寿命5-7年,旨在为全球提供覆盖广泛的宽带互联网服务,退役后会主动离轨坠入大气层焚毁。

Basic Information
目录编号:
57611
目录名称:
STARLINK-30052
国际标识:
2023-119K
轨道中心:
EARTH
卫星名称:
星链-30052
卫星全名:
星链-30052 (STARLINK-30052 )
卫星状态:
在轨 (已飞行1120 天)
发射日期:
2023-08-11 UTC
国别 :
美国 (US)
星等 :
--
Orbit Information
数据来源 国际轨道数据 AOE轨道数据
星历时间 2026-09-02T09:34:49+0800
2天前
查看轨道信息
2026-09-03T22:00:00+0800
12小时前
查看轨道信息
半长轴 6861.21km 6861.148km
偏心率 0.0001257 0.0001343
轨道倾角 43.002° 43.000°
近地点辐角 263.724° 258.676°
升交点赤经 165.258° 156.689°
平近点角 96.347° 176.337°
近地点 482.21km 482.089km
远地点 483.936km 483.933km
周期 94.267分钟 94.266分钟
每日圈数 15.275722 15.275928
Detailed Information
固有亮度:
5
最大亮度:
0.3
卫星平台:
Starlink v2.0 mini
覆盖范围:
全球
运营商:
太空探索技术公司
运营商所在国:
美国
制造商(研发单位):
太空探索技术公司
制造商所在国:
美国
使用方式:
暂无
Satellite Introduction
星链(Starlink)计划是由太空探索技术公司(SpaceX)提出的一个巨型低轨卫星互联网星座项目,计划在2019年至2024年间在太空搭建由约1.2万颗卫星组成的“星链”网络,其中1584颗将部署在地球上空550千米处的近地轨道,并从2020年开始工作。该卫星仍在工作。
2D Orbit Map
3D Orbit Map
Orbit Altitude Analysis Chart
Orbit Inclination Analysis Chart
Orbit Comprehensive Analysis Chart
View Comprehensive Chart
Conjunction Data List
Event ID Objects TCA Miss Dist (km) Collision Risk Probability Collision Risk Index (CRI) Action
CDM_260904-163405-761106-658021
2026-09-04T
16:34:35+0000
0.111 km
中距离
1.018126E-3 极高风险 0.95
CDM_260903-233605-761106-308021
2026-09-03T
23:36:13+0000
0.658 km
远距离
8.216504E-5 中风险 0.73
CDM_260905-072905-761106-658021
2026-09-05T
07:29:02+0000
1.170 km
极远距离
9.861784E-6 低风险 0.55
CDM_260905-055405-761106-658021
2026-09-05T
05:54:53+0000
1.384 km
极远距离
5.572466E-6 低风险 0.5
CDM_260904-150005-761106-658021
2026-09-04T
15:00:25+0000
1.781 km
极远距离
2.56578E-6 低风险 0.43
CDM_260904-180805-761106-658021
2026-09-04T
18:08:44+0000
1.793 km
极远距离
2.516032E-6 低风险 0.43
CDM_260903-220205-761106-308021
2026-09-03T
22:02:01+0000
2.952 km
极远距离
1.130595E-6 低风险 0.36
CDM_260829-175605-392405-761122
2026-08-29T
17:56:40+0000
2.748 km
极远距离
7.907056E-7 极低风险 0.33